Location: ?????????
(54.7630°N, 39.4991°E)
Time: 19:25:25
(UTC+00:00)

Cosmos 2369 Rocket - Pass Details

Date: 14 April 2026
Orbit: 829 x 850 km, 71.0° (Epoch: 19 May)

Event Time Altitude Azimuth Distance (km) Brightness Sun altitude
Rises 20:26:38 0° 323° (NW) 3,386 6.5 -24.5°
Reaches altitude 10° 20:29:17 10° 314° (NW) 2,446 5.4 -24.6°
Maximum altitude 20:34:10 32° 253° (WSW) 1,394 3.2 -24.8°
Enters shadow 20:34:51 31° 239° (WSW) 1,421 3.2 -24.8°
